Home   Weather   Debrecen   Past weeks

Flag for Hungary Past Weather in Debrecen, Hungary — Yesterday and Last 2 Weeks

Now
39 °F

Fog.


Feels Like: 33 °F
Forecast: 32 / 45 °F
Wind: 9 mph from South

Location: Debrecen Airport

Current Time: Feb 21, 2017 at 10:40:41 pm

Latest Report: Feb 21, 2017 at 7:45 pm


Visibility: 2 mi

Pressure: 29.83 "Hg

Humidity: 93%

Dew Point: 37 °F

Location of DebrecenLocation

Past Weather in Debrecen — Graph

°F

Debrecen Temperature Yesterday

Maximum temperature yesterday: 32 °F (at 7:45 am)
Minimum temperature yesterday: 30 °F (at 5:15 am)
Average temperature yesterday: 32 °F

High & Low Weather Summary for the Past Weeks

 TemperatureHumidityPressure
High41 °F (Feb 6, 7:15 pm)100% (Feb 11, 5:15 am)30.66 "Hg (Feb 11, 5:15 am)
Low23 °F (Feb 8, 11:45 pm)61% (Feb 10, 11:15 am)29.83 "Hg (Feb 21, 2:15 pm)
Average30 °F90%30.34 "Hg
* Reported Feb 6 7:15 pm — Feb 21 7:45 pm, Debrecen, Weather by CustomWeather, © 2017

Note: Actual official high and low records may vary slightly from our data, if they occured in-between our weather recording intervals... More about our weather records

Advertising

Debrecen Weather History for the Previous 24 Hours

Scroll right to see more
 ConditionsComfort  
Time TempWeatherWind HumidityBarometerVisibility
7:45 pm
Tue, Feb 21
39 °FFog.9 mph93%29.83 "Hg2 mi
7:17 pm39 °FFog.10 mph93%29.83 "Hg2 mi
6:45 pm39 °FFog.13 mph93%29.83 "Hg2 mi
6:15 pm39 °FFog.10 mph93%29.83 "Hg2 mi
5:45 pm39 °FLight rain. Low clouds.13 mph93%29.83 "Hg2 mi
5:15 pm39 °FLight rain. Low clouds.10 mph93%29.83 "Hg1 mi
4:47 pm37 °FRain. Low clouds.12 mph100%29.83 "Hg1 mi
4:15 pm37 °FRain. Overcast.12 mph93%29.83 "Hg1 mi
3:45 pm37 °FRain. Overcast.13 mph93%29.83 "Hg1 mi
3:15 pm37 °FLight rain. Overcast.12 mph93%29.83 "Hg1 mi
2:45 pm37 °FLight rain. Overcast.12 mph93%29.83 "Hg2 mi
2:15 pm37 °FLight rain. Overcast.14 mph93%29.83 "Hg2 mi
1:45 pm37 °FLight rain. Overcast.13 mph93%29.86 "Hg2 mi
1:15 pm36 °FLight rain. Overcast.14 mph93%29.86 "Hg2 mi
12:45 pm36 °FLight rain. Overcast.15 mph93%29.86 "Hg2 mi
12:15 pm36 °FLight rain. Overcast.15 mph93%29.86 "Hg2 mi
11:45 am36 °FLight rain. Overcast.14 mph93%29.89 "Hg1 mi
11:15 am36 °FLight rain. Overcast.16 mph93%29.89 "Hg2 mi
10:45 am36 °FLight rain. Overcast.15 mph93%29.89 "Hg2 mi
10:15 am36 °FLight rain. Overcast.16 mph93%29.89 "Hg2 mi
9:45 am34 °FLight rain. Overcast.16 mph100%29.92 "Hg1 mi
9:15 am34 °FLight rain. Overcast.17 mph93%29.92 "Hg1 mi
9:03 am34 °FChilly.18 mph93%29.92 "HgN/A
8:45 am34 °FLight rain. Overcast.15 mph93%29.92 "Hg1 mi
8:15 am34 °FLight rain. Overcast.16 mph93%29.92 "Hg1 mi
7:45 am34 °FLight rain. Overcast.17 mph93%29.92 "Hg1 mi
7:15 am34 °FLight rain. Overcast.16 mph93%29.92 "Hg1 mi
6:49 am32 °FLight rain. Overcast.18 mph100%29.95 "Hg2 mi
6:15 am32 °FRain. Overcast.15 mph100%29.95 "Hg2 mi
5:49 am32 °FRain. Overcast.15 mph93%29.98 "Hg2 mi
5:15 am32 °FSleet. Overcast.16 mph100%29.98 "Hg3 mi
4:55 am32 °FChilly.16 mph100%29.98 "HgN/A
11:18 pm
Mon, Feb 20
32 °FIce fog.13 mph100%30.12 "Hg1 mi
10:45 pm32 °FIce fog.10 mph93%30.12 "Hg2 mi
10:15 pm32 °FIce fog.9 mph93%30.12 "Hg2 mi
Weather by CustomWeather, © 2017

See weather overviewHow to use our weather pages